Date String (YYYY-MM-DD hh:mm:ss) UTC,Instrument flags,Ambient pressure (hPa),Sample flow (lpm),Bypass flow (lpm),Sample temperature (°C),Ambient temperature (°C),ASC tube jacket temperature (°C),LED temperature (°C),Box temperature (°C),Sample RH (%),Span deviation,Mass concentration (μg/m³),Mass concentration (μg/m³),Mass concentration (μg/m³)
DateTimeUTC,F1_M11,P_M11,Q1_M11,Q2_M11,T1_M11,T2_M11,T3_M11,T4_M11,T5_M11,U1_M11,ZSPAN_M11,X2_M11,X0_M11,X1_M11
2022-06-01 02:00:00,,0831.2,4.99,0.00,28.1,27.1,00.0,37.0,30.0,21.8,0000.0,0002.19,0003.14,0001.87
2022-06-01 02:01:00,,0831.3,5.00,0.00,28.1,27.1,00.0,37.0,30.0,21.9,0000.0,0002.18,0003.12,0001.86
2022-06-01 02:02:00,,0831.3,5.01,0.00,28.1,27.1,00.0,37.0,30.0,21.9,0000.0,0002.19,0003.09,0001.87
2022-06-01 02:03:00,,0831.3,4.98,0.00,28.1,27.1,00.0,37.1,30.0,21.9,0000.0,0002.19,0003.09,0001.88
2022-06-01 02:04:00,,0831.3,5.00,0.00,28.1,27.1,00.0,37.1,30.0,22.0,0000.0,0002.20,0003.12,0001.90
2022-06-01 02:05:00,,0831.3,5.00,0.00,28.1,27.1,00.0,37.1,30.0,22.1,0000.0,0002.21,0003.10,0001.90
2022-06-01 02:06:00,,0831.3,4.99,0.00,28.1,27.1,00.0,37.1,30.0,22.3,0000.0,0002.23,0002.98,0001.93
2022-06-01 02:07:00,,0831.3,4.99,0.00,28.1,27.1,00.0,37.1,30.0,22.3,0000.0,0002.25,0002.98,0001.96
2022-06-01 02:08:00,,0831.2,5.01,0.00,28.1,27.1,00.0,37.1,30.0,22.3,0000.0,0002.32,0003.11,0001.99
2022-06-01 02:09:00,,0831.3,5.01,0.00,28.1,27.1,00.0,37.1,30.0,22.4,0000.0,0002.40,0003.32,0002.03
2022-06-01 02:10:00,,0831.3,5.01,0.00,28.1,27.1,00.0,37.1,30.0,22.5,0000.0,0002.44,0003.40,0002.06
2022-06-01 02:11:00,,0831.4,5.01,0.00,28.1,27.1,00.0,37.1,30.0,22.5,0000.0,0002.51,0003.54,0002.07
2022-06-01 02:12:00,,0831.4,4.98,0.00,28.1,27.1,00.0,37.1,30.0,22.2,0000.0,0002.56,0003.71,0002.06
2022-06-01 02:13:00,,0831.4,5.00,0.00,28.1,27.1,00.0,37.1,30.0,22.1,0000.0,0002.58,0003.92,0002.03
2022-06-01 02:14:00,,0831.4,5.01,0.00,28.1,27.1,00.0,37.1,30.0,22.0,0000.0,0002.60,0004.03,0002.00
2022-06-01 02:15:00,,0831.4,5.00,0.00,28.1,27.1,00.0,37.1,30.0,21.9,0000.0,0002.73,0004.50,0001.99
2022-06-01 02:16:00,,0831.4,5.00,0.00,28.1,27.0,00.0,37.1,30.0,21.8,0000.0,0002.85,0004.91,0001.95
2022-06-01 02:17:00,,0831.4,4.99,0.00,28.1,27.0,00.0,37.0,30.0,21.7,0000.0,0002.91,0005.15,0001.90
2022-06-01 02:18:00,,0831.4,5.00,0.00,28.1,27.0,00.0,37.0,30.0,21.8,0000.0,0002.93,0005.39,0001.84
2022-06-01 02:19:00,,0831.4,5.02,0.00,28.1,27.0,00.0,37.0,30.0,21.7,0000.0,0002.88,0005.35,0001.77
2022-06-01 02:20:00,,0831.4,5.00,0.00,28.1,27.0,00.0,37.0,30.0,21.5,0000.0,0002.78,0005.17,0001.68
2022-06-01 02:21:00,,0831.4,4.99,0.00,28.1,27.0,00.0,37.0,30.0,21.5,0000.0,0002.72,0005.09,0001.61
2022-06-01 02:22:00,,0831.4,4.99,0.00,28.1,27.0,00.0,37.0,30.0,21.6,0000.0,0002.67,0005.09,0001.55
2022-06-01 02:23:00,,0831.4,5.01,0.00,28.1,27.0,00.0,37.0,30.0,21.5,0000.0,0002.62,0005.01,0001.52
2022-06-01 02:24:00,,0831.4,4.99,0.00,28.1,27.0,00.0,37.0,30.0,21.5,0000.0,0002.56,0004.80,0001.49
2022-06-01 02:25:00,,0831.4,5.01,0.00,28.1,27.0,00.0,37.0,30.0,21.5,0000.0,0002.50,0004.70,0001.47
2022-06-01 02:26:00,,0831.4,5.01,0.00,28.1,27.0,00.0,37.0,30.0,21.5,0000.0,0002.35,0004.28,0001.44
2022-06-01 02:27:00,,0831.4,5.00,0.00,28.1,27.0,00.0,37.0,30.0,21.5,0000.0,0002.18,0003.87,0001.41
2022-06-01 02:28:00,,0831.4,4.99,0.00,28.1,27.0,00.0,37.0,29.9,21.5,0000.0,0002.06,0003.59,0001.39
2022-06-01 02:29:00,,0831.4,4.99,0.00,28.1,26.9,00.0,37.0,29.9,21.5,0000.0,0001.94,0003.25,0001.36
2022-06-01 02:30:00,,0831.4,5.01,0.00,28.1,26.9,00.0,37.0,29.9,21.5,0000.0,0001.88,0003.11,0001.33
2022-06-01 02:31:00,,0831.5,5.00,0.00,28.1,26.9,00.0,37.0,29.9,21.5,0000.0,0001.87,0003.06,0001.32
2022-06-01 02:32:00,,0831.5,5.00,0.00,28.1,26.9,00.0,37.0,29.9,21.5,0000.0,0001.82,0002.95,0001.32
2022-06-01 02:33:00,,0831.6,5.01,0.00,28.1,26.9,00.0,37.0,29.9,21.5,0000.0,0001.75,0002.77,0001.30
2022-06-01 02:34:00,,0831.6,5.00,0.00,28.1,26.9,00.0,37.0,29.9,21.5,0000.0,0001.69,0002.66,0001.28
2022-06-01 02:35:00,,0831.6,4.98,0.00,28.0,26.9,00.0,37.0,29.9,21.5,0000.0,0001.65,0002.58,0001.26
2022-06-01 02:36:00,,0831.7,5.00,0.00,28.0,26.9,00.0,37.0,29.9,21.5,0000.0,0001.61,0002.47,0001.24
2022-06-01 02:37:00,,0831.6,5.00,0.00,28.0,26.9,00.0,37.0,29.9,21.5,0000.0,0001.56,0002.36,0001.21
2022-06-01 02:38:00,,0831.6,5.01,0.00,28.0,26.9,00.0,37.0,29.9,21.5,0000.0,0001.54,0002.29,0001.20
2022-06-01 02:39:00,,0831.6,5.01,0.00,28.0,26.9,00.0,37.0,29.9,21.4,0000.0,0001.51,0002.24,0001.19
2022-06-01 02:40:00,,0831.6,4.99,0.00,28.0,26.9,00.0,37.0,29.9,21.3,0000.0,0001.47,0002.16,0001.18
2022-06-01 02:41:00,,0831.7,5.01,0.00,28.0,26.9,00.0,37.0,29.9,21.2,0000.0,0001.46,0002.16,0001.17
2022-06-01 02:42:00,,0831.7,5.00,0.00,28.0,26.9,00.0,37.0,29.9,21.2,0000.0,0001.45,0002.18,0001.15
2022-06-01 02:43:00,,0831.7,5.00,0.00,28.0,26.9,00.0,37.0,29.9,21.2,0000.0,0001.44,0002.15,0001.15
2022-06-01 02:44:00,,0831.7,5.00,0.00,28.0,26.8,00.0,37.0,29.8,21.2,0000.0,0001.47,0002.23,0001.15
2022-06-01 02:45:00,,0831.7,4.99,0.00,28.0,26.8,00.0,36.9,29.9,21.3,0000.0,0001.49,0002.33,0001.13
2022-06-01 02:46:00,,0831.6,5.01,0.00,28.0,26.8,00.0,36.9,29.9,21.4,0000.0,0001.45,0002.24,0001.12
2022-06-01 02:47:00,,0831.7,4.99,0.00,28.0,26.8,00.0,36.9,29.8,21.4,0000.0,0001.44,0002.19,0001.11
2022-06-01 02:48:00,,0831.7,5.00,0.00,28.0,26.8,00.0,36.9,29.8,21.3,0000.0,0001.44,0002.20,0001.11
2022-06-01 02:49:00,,0831.7,5.01,0.00,28.0,26.8,00.0,36.9,29.8,21.3,0000.0,0001.41,0002.15,0001.10
2022-06-01 02:50:00,,0831.7,4.99,0.00,28.0,26.8,00.0,36.9,29.8,21.3,0000.0,0001.37,0002.03,0001.09
2022-06-01 02:51:00,,0831.7,5.00,0.00,28.0,26.8,00.0,36.9,29.8,21.3,0000.0,0001.38,0002.06,0001.09
2022-06-01 02:52:00,,0831.7,5.00,0.00,28.0,26.8,00.0,36.9,29.8,21.3,0000.0,0001.36,0002.02,0001.09
2022-06-01 02:53:00,,0831.7,5.01,0.00,28.0,26.8,00.0,36.9,29.8,21.2,0000.0,0001.34,0001.96,0001.09
2022-06-01 02:54:00,,0831.7,4.99,0.00,28.0,26.8,00.0,36.9,29.8,21.3,0000.0,0001.35,0002.14,0001.07
2022-06-01 02:55:00,,0831.7,5.00,0.00,27.9,26.8,00.0,36.9,29.8,21.3,0000.0,0001.34,0002.11,0001.07
2022-06-01 02:56:00,,0831.7,5.00,0.00,27.9,26.8,00.0,36.9,29.8,21.4,0000.0,0001.33,0002.06,0001.08
2022-06-01 02:57:00,,0831.7,5.00,0.00,27.9,26.8,00.0,36.9,29.8,21.4,0000.0,0001.35,0002.10,0001.10
2022-06-01 02:58:00,,0831.8,5.00,0.00,27.9,26.8,00.0,36.9,29.8,21.3,0000.0,0001.39,0002.21,0001.12
2022-06-01 02:59:00,,0831.9,5.00,0.00,27.9,26.8,00.0,36.9,29.8,21.3,0000.0,0001.41,0002.24,0001.13
